TimeEDT,TemperatureF,Dew PointF,Humidity,Sea Level PressureIn,VisibilityMPH,Wind Direction,Wind SpeedMPH,Gust SpeedMPH,PrecipitationIn,Events,Conditions,WindDirDegrees,DateUTC
12:51 AM,34.0,27.0,75,30.47,10.0,Calm,Calm,-,N/A,,Clear,0,2012-10-13 04:51:00
1:51 AM,35.6,28.4,75,30.46,10.0,WNW,3.5,-,N/A,,Clear,290,2012-10-13 05:51:00
2:51 AM,32.0,27.0,82,30.47,10.0,Calm,Calm,-,N/A,,Clear,0,2012-10-13 06:51:00
3:51 AM,30.0,25.0,82,30.48,10.0,Calm,Calm,-,N/A,,Clear,0,2012-10-13 07:51:00
4:51 AM,30.0,26.1,85,30.48,10.0,Calm,Calm,-,N/A,,Clear,0,2012-10-13 08:51:00
5:51 AM,30.0,26.1,85,30.51,10.0,Calm,Calm,-,N/A,,Clear,0,2012-10-13 09:51:00
6:51 AM,30.0,26.1,85,30.52,10.0,Calm,Calm,-,N/A,,Clear,0,2012-10-13 10:51:00
7:51 AM,30.0,28.0,92,30.52,10.0,Calm,Calm,-,N/A,,Clear,0,2012-10-13 11:51:00
8:51 AM,35.1,28.9,78,30.54,10.0,Calm,Calm,-,N/A,,Clear,0,2012-10-13 12:51:00
9:51 AM,41.0,28.9,62,30.54,10.0,Calm,Calm,-,N/A,,Clear,0,2012-10-13 13:51:00
10:51 AM,45.0,28.0,52,30.53,10.0,Calm,Calm,-,N/A,,Clear,0,2012-10-13 14:51:00
11:51 AM,48.9,27.0,43,30.52,10.0,Calm,Calm,-,N/A,,Clear,0,2012-10-13 15:51:00
12:51 PM,51.1,21.9,32,30.48,10.0,Calm,Calm,-,N/A,,Clear,0,2012-10-13 16:51:00
1:51 PM,53.1,21.9,30,30.43,10.0,SSE,3.5,-,N/A,,Clear,160,2012-10-13 17:51:00
2:51 PM,54.0,24.1,31,30.40,10.0,SW,6.9,-,N/A,,Clear,220,2012-10-13 18:51:00
3:51 PM,55.0,24.1,30,30.38,10.0,South,6.9,-,N/A,,Clear,190,2012-10-13 19:51:00
4:51 PM,54.0,28.0,37,30.38,10.0,South,5.8,-,N/A,,Clear,190,2012-10-13 20:51:00
6:51 PM,52.0,30.0,43,30.35,10.0,South,5.8,-,N/A,,Clear,190,2012-10-13 22:51:00
7:51 PM,50.0,30.0,46,30.35,10.0,South,4.6,-,N/A,,Clear,190,2012-10-13 23:51:00
8:51 PM,46.0,30.9,56,30.35,10.0,South,3.5,-,N/A,,Clear,190,2012-10-14 00:51:00
9:51 PM,46.9,30.9,54,30.34,10.0,South,3.5,-,N/A,,Clear,170,2012-10-14 01:51:00
10:51 PM,45.0,33.1,63,30.33,10.0,Calm,Calm,-,N/A,,Clear,0,2012-10-14 02:51:00
11:51 PM,45.0,37.0,74,30.30,10.0,Calm,Calm,-,N/A,,Clear,0,2012-10-14 03:51:00